Weather History for West Yellowstone, MT

Change the Weather History Date:

Monday, November 5, 2012

  Actual Average Record
Temperature  
Mean Temperature 37 °F -  
Max Temperature 48 °F 40 °F 57 °F (2010)
Min Temperature 26 °F 19 °F -2 °F (2013)
Degree Days  
Heating Degree Days 28    
Moisture  
Dew Point -    
Average Humidity    
Maximum Humidity    
Minimum Humidity    
Precipitation  
Precipitation 0.00 in - - ()
Sea Level Pressure  
Sea Level Pressure 30.40 in    
Wind  
Wind Speed 5 mph (SW)    
Max Wind Speed 17 mph    
Max Gust Speed 24 mph    
Visibility 10 miles    
Events      
Averages and records for this station are not official NWS values.
T = Trace of Precipitation, MM = Missing Value Source: NWS Daily Summary

Daily Weather History Graph

Daily Weather History Graph

Search for Another Location

Airport:

Trip Planner

Search our weather history database for the weather conditions in past years. The results will help you decide how hot, cold, wet, or windy it might be!

Date:

Astronomy

Nov. 05, 2012 Rise Set
Actual Time 7:08 AM MST 5:07 PM MST
Civil Twilight 6:37 AM MST 5:37 PM MST
Nautical Twilight 6:02 AM MST 6:12 PM MST
Astronomical Twilight 5:28 AM MST 6:46 PM MST
Moon 10:48 PM MST (11/5) 12:30 PM MST (11/5)
Length of Visible Light 11h 00m
Length of Day
9h 58m
Waning Gibbous, 62% of the Moon is Illuminated
Nov 5
Waning Gibbous
Nov 6
Last Quarter
Nov 13
New
Nov 20
First Quarter
Nov 28
Full

Hourly Weather History & Observations

Time (MST) Temp. Windchill Dew Point Humidity Pressure Visibility Wind Dir Wind Speed Gust Speed Precip Events Conditions
12:10 AM 30.2 °F - - N/A% 30.44 in 10.0 mi Calm Calm - N/A   Clear
12:30 AM 30.2 °F - - N/A% 30.44 in 10.0 mi Calm Calm - N/A   Clear
12:50 AM 30.2 °F - - N/A% 30.44 in 10.0 mi Calm Calm - N/A   Clear
1:10 AM 30.2 °F - - N/A% 30.44 in 10.0 mi Calm Calm - N/A   Clear
1:30 AM 30.2 °F 25.4 °F - N/A% 30.44 in 10.0 mi WSW 4.6 mph - N/A   Clear
1:50 AM 32.0 °F 27.5 °F - N/A% 30.44 in 10.0 mi West 4.6 mph - N/A   Clear
2:10 AM 32.0 °F 28.7 °F - N/A% 30.44 in 10.0 mi West 3.5 mph - N/A   Clear
2:30 AM 30.2 °F 25.4 °F - N/A% 30.43 in 10.0 mi NE 4.6 mph - N/A   Clear
2:50 AM 28.4 °F 24.6 °F - N/A% 30.44 in 10.0 mi NNE 3.5 mph - N/A   Clear
3:10 AM 28.4 °F - - N/A% 30.44 in 10.0 mi Calm Calm - N/A   Clear
3:30 AM 28.4 °F - - N/A% 30.43 in 10.0 mi Calm Calm - N/A   Clear
3:50 AM 30.2 °F 25.4 °F - N/A% 30.42 in 10.0 mi SSW 4.6 mph - N/A   Clear
4:10 AM 30.2 °F - - N/A% 30.41 in 10.0 mi Calm Calm - N/A   Clear
4:30 AM 28.4 °F 23.3 °F - N/A% 30.41 in 10.0 mi SE 4.6 mph - N/A   Clear
4:50 AM 28.4 °F 22.2 °F - N/A% 30.41 in 10.0 mi SW 5.8 mph - N/A   Clear
5:10 AM 28.4 °F - - N/A% 30.41 in 10.0 mi Calm Calm - N/A   Clear
5:30 AM 26.6 °F - - N/A% 30.40 in 10.0 mi Calm Calm - N/A   Clear
5:50 AM 28.4 °F - - N/A% 30.42 in 10.0 mi Calm Calm - N/A   Clear
6:10 AM 26.6 °F - - N/A% 30.41 in 10.0 mi Calm Calm - N/A   Clear
6:30 AM 28.4 °F 24.6 °F - N/A% 30.42 in 10.0 mi NE 3.5 mph - N/A   Clear
6:50 AM 28.4 °F 24.6 °F - N/A% 30.41 in 10.0 mi NE 3.5 mph - N/A   Partly Cloudy
7:10 AM 28.4 °F - - N/A% 30.42 in 10.0 mi Calm Calm - N/A   Mostly Cloudy
7:30 AM 26.6 °F - - N/A% 30.43 in 10.0 mi Calm Calm - N/A   Mostly Cloudy
7:50 AM 28.4 °F - - N/A% 30.41 in 10.0 mi Calm Calm - N/A   Partly Cloudy
8:10 AM 28.4 °F - - N/A% 30.42 in 10.0 mi Calm Calm - N/A   Clear
8:30 AM 30.2 °F 26.7 °F - N/A% 30.43 in 10.0 mi NNE 3.5 mph - N/A   Partly Cloudy
8:50 AM 32.0 °F - - N/A% 30.43 in 10.0 mi Calm Calm - N/A   Mostly Cloudy
9:10 AM 33.8 °F - - N/A% 30.43 in 10.0 mi Calm Calm - N/A   Overcast
9:30 AM 39.2 °F 33.0 °F - N/A% 30.43 in 10.0 mi SW 9.2 mph - N/A   Overcast
9:50 AM 39.2 °F 30.8 °F - N/A% 30.42 in 10.0 mi SSW 15.0 mph 18.4 mph N/A   Overcast
10:10 AM 39.2 °F 32.5 °F - N/A% 30.44 in 10.0 mi SW 10.4 mph 19.6 mph N/A   Overcast
10:30 AM 39.2 °F 32.5 °F - N/A% 30.43 in 10.0 mi SSW 10.4 mph 16.1 mph N/A   Overcast
10:50 AM 41.0 °F 33.1 °F - N/A% 30.42 in 10.0 mi SW 15.0 mph - N/A   Mostly Cloudy
11:10 AM 41.0 °F 33.1 °F - N/A% 30.42 in 10.0 mi SW 15.0 mph 20.7 mph N/A   Scattered Clouds
11:30 AM 41.0 °F 33.5 °F - N/A% 30.41 in 10.0 mi SW 13.8 mph 20.7 mph N/A   Scattered Clouds
11:50 AM 41.0 °F 35.2 °F - N/A% 30.40 in 10.0 mi WSW 9.2 mph 19.6 mph N/A   Partly Cloudy
12:10 PM 42.8 °F 37.0 °F - N/A% 30.40 in 10.0 mi SW 10.4 mph - N/A   Scattered Clouds
12:30 PM 44.6 °F 38.1 °F - N/A% 30.38 in 10.0 mi SW 13.8 mph 21.9 mph N/A   Partly Cloudy
12:50 PM 44.6 °F 37.8 °F - N/A% 30.37 in 10.0 mi SW 15.0 mph 24.2 mph N/A   Clear
1:10 PM 44.6 °F 38.1 °F - N/A% 30.37 in 10.0 mi SSW 13.8 mph 19.6 mph N/A   Clear
1:30 PM 46.4 °F 40.4 °F - N/A% 30.37 in 10.0 mi SSW 13.8 mph 21.9 mph N/A   Clear
1:50 PM 46.4 °F 41.9 °F - N/A% 30.37 in 10.0 mi SW 9.2 mph - N/A   Partly Cloudy
2:10 PM 48.2 °F - - N/A% 30.36 in 10.0 mi SW 16.1 mph 23.0 mph N/A   Mostly Cloudy
2:30 PM 46.4 °F 40.1 °F - N/A% 30.36 in 10.0 mi SW 15.0 mph 21.9 mph N/A   Partly Cloudy
2:50 PM 46.4 °F 39.5 °F - N/A% 30.35 in 10.0 mi SW 17.3 mph 21.9 mph N/A   Clear
3:10 PM 46.4 °F 40.1 °F - N/A% 30.35 in 10.0 mi SW 15.0 mph 20.7 mph N/A   Clear
3:30 PM 46.4 °F 41.1 °F - N/A% 30.35 in 10.0 mi SW 11.5 mph 18.4 mph N/A   Clear
3:50 PM 46.4 °F 41.5 °F - N/A% 30.35 in 10.0 mi WSW 10.4 mph 17.3 mph N/A   Clear
4:10 PM 44.6 °F 39.2 °F - N/A% 30.36 in 10.0 mi WSW 10.4 mph - N/A   Clear
4:30 PM 44.6 °F 38.8 °F - N/A% 30.37 in 10.0 mi SW 11.5 mph - N/A   Clear
4:50 PM 44.6 °F 38.4 °F - N/A% 30.36 in 10.0 mi SSW 12.7 mph 17.3 mph N/A   Clear
5:10 PM 42.8 °F 36.2 °F - N/A% 30.36 in 10.0 mi SSW 12.7 mph 19.6 mph N/A   Clear
5:30 PM 42.8 °F 37.0 °F - N/A% 30.37 in 10.0 mi SW 10.4 mph - N/A   Clear
5:50 PM 41.0 °F 34.7 °F - N/A% 30.37 in 10.0 mi SW 10.4 mph 17.3 mph N/A   Clear
6:10 PM 41.0 °F 34.7 °F - N/A% 30.37 in 10.0 mi SW 10.4 mph - N/A   Clear
6:30 PM 41.0 °F 33.9 °F - N/A% 30.36 in 10.0 mi SW 12.7 mph 16.1 mph N/A   Clear
6:50 PM 41.0 °F 33.1 °F - N/A% 30.37 in 10.0 mi SSW 15.0 mph 19.6 mph N/A   Clear
7:10 PM 41.0 °F 34.7 °F - N/A% 30.38 in 10.0 mi SSW 10.4 mph 19.6 mph N/A   Clear
7:30 PM 41.0 °F 34.7 °F - N/A% 30.38 in 10.0 mi SSW 10.4 mph - N/A   Clear
7:50 PM 41.0 °F 34.7 °F - N/A% 30.37 in 10.0 mi SSW 10.4 mph - N/A   Clear
8:10 PM 39.2 °F 33.0 °F - N/A% 30.37 in 10.0 mi SSW 9.2 mph - N/A   Clear
8:30 PM 41.0 °F 35.2 °F - N/A% 30.38 in 10.0 mi SSW 9.2 mph - N/A   Clear
8:50 PM 41.0 °F 36.4 °F - N/A% 30.39 in 10.0 mi SW 6.9 mph - N/A   Clear
9:10 PM 41.0 °F 38.0 °F - N/A% 30.39 in 10.0 mi WSW 4.6 mph - N/A   Clear
9:30 PM 39.2 °F 35.0 °F - N/A% 30.39 in 10.0 mi SW 5.8 mph - N/A   Clear
9:50 PM 39.2 °F 35.0 °F - N/A% 30.38 in 10.0 mi WSW 5.8 mph - N/A   Clear
10:10 PM 37.4 °F 33.8 °F - N/A% 30.37 in 10.0 mi WNW 4.6 mph - N/A   Clear
10:30 PM 33.8 °F 30.8 °F - N/A% 30.37 in 10.0 mi NW 3.5 mph - N/A   Clear
10:50 PM 33.8 °F - - N/A% 30.37 in 10.0 mi Calm Calm - N/A   Clear
11:10 PM 32.0 °F - - N/A% 30.36 in 10.0 mi Calm Calm - N/A   Clear
11:30 PM 32.0 °F 28.7 °F - N/A% 30.35 in 10.0 mi North 3.5 mph - N/A   Clear
11:50 PM 32.0 °F 27.5 °F - N/A% 30.36 in 10.0 mi SE 4.6 mph - N/A   Clear